DMSP 5D-2 F12 DEB, 43344

Orbit data source: Space-Track

DMSP 5D-2 F12 DEB, 43344 is space debris in SSO originally from a launch on Mon, 29 Aug 1994 UTC launched from the Air Force Western Test Range (AFWTR). Debris objects in space refer to the collection of defunct objects orbiting the Earth. Examples of debris include non-operational satellites, rocket bodies, and fragments generated from explosions, collisions, or faulty payload assembly.

Loading next visibility...
DMSP 5D-2 F12 DEB details
Identifier
43344, 1994-057G
Orbit
SSO
Last TLE update2 days ago
Origin
Flag of USUSAF SMC (US)
ManufacturerLM/EW
MissionSpacecraft
Bus & MotorUnknown
MassUnknown
Launch date (UTC)
1994-08-29 (30 years ago)
Launch vehicleUnknown
Launch site
Air Force Western Test Range (AFWTR)
Object type
Payload
Rocket body
Debris
Shape & HBRUnknown
Radar Cross SectionSmall (<0.1 m²)

Expand to show TLE details & history

TLE from 2 days ago
0 DMSP 5D-2 F12 DEB
1 43344U 94057G   24359.70367161  .00013284  00000-0  47902-2 0  9999
2 43344  98.9556  92.6813 0006471 299.6726  60.3813 14.33736166423314
Epoch: 2024-12-24T16:53Z
Definitive object data (Epoch: 2024-12-24T16:53:17.227Z)
Latitude0.00004°
Longitude105.65155°
Altitude779.907 km
Speed7.465 km/s
True Right ascension06h 10m 43s
True Declination0° 00' 00"
Sunlit
Object was in full shadow at TLE epoch
Visualization TLE readout
Latitude-45.54069°
Longitude116.63911°
Altitude792.293 km
Speed7.459 km/s
Apparent Right ascension02h 31m 38s
Apparent Declination-67° 33' 15"
Sunlit
Object is in daylight
Visualization observer readout
Local Sidereal Time09:53:55
Azimuth209.854° SW
Elevation-44.103°
Doppler factor1
Orbital elements
Apogee altitude781.051 km
Perigee altitude771.792 km
Semi-major axis7,154.559 km
Eccentricity0.0006471
Inclination98.9556°
RAAN92.6813°
Arg. of periapsis299.6726°
True anomaly60.44579°
Mean anomaly60.3813°
Eccentric anomaly60.41354°
Mean motion3.58648 °/min
BSTAR0.0047902
Orbital period100.38 mins
Loading maneuver chart data...
Loading historical data...
Loading historical data...
Loading historical data...
Loading historical data...
Loading historical data...
Loading historical data...
Loading historical data...

DMSP 5D-2 F12 DEB Visibility forecast

Observer location: undefined°, undefined

Span
Click to sort rows by Start time (UTC) header in descending order
Start Az.
Max El. time (UTC)
Max El. Az.
Max El.
End time (UTC)
End Az.
5 mins2024-12-26 18:04:43.725Z62.011° ENE2024-12-26 18:06:43.725Z86.821° E15.107°2024-12-26 18:09:43.725Z124.647° SE
8 mins2024-12-26 19:42:43.725Z3.049° NNE2024-12-26 19:46:43.725Z285.054° WNW40.646°2024-12-26 19:50:43.725Z212.131° SW
6 mins2024-12-27 05:20:43.725Z105.097° ESE2024-12-27 05:23:43.725Z59.062° ENE21.871°2024-12-27 05:26:43.725Z18.522° NNE
8 mins2024-12-27 06:58:43.725Z197.342° SSW2024-12-27 07:02:43.725Z272.499° WNW32.87°2024-12-27 07:06:43.725Z329.043° NNW
|